Sabadell, Spain

7:19 PM CET en Noviembre 22, 2017 (GMT +0100)
Sabadell

Tiempo Historia de LELL - Noviembre, 2017

Change the Weather History Date:

Martes, Noviembre 14, 2017

  Actual Average (LEBL) Record (LEBL)
Temperature  
Temperatura media 47 ° F -  
Temperatura máxima 59 ° F 60 ° F 69 ° F (1998)
Temperatura mínima 35 ° F 46 ° F 42 ° F (1999)
Degree Days  
Grados día de calefacción 18    
Moisture  
Punto de rocío 28 ° F    
Average Humidity 51    
Maximum Humidity 75    
Minimum Humidity 31    
Precipitación  
Precipitación 0.00 pul - - ()
Presión al nivel del mar  
Presión al nivel del mar 30.05 pul    
Viento  
Velocidad del viento 2 mph ()    
Velocidad máxima del viento 7 mph    
Max Gust Speed -    
Visibilidad 6.2 Millas    
Eventos      
Averages and records for this station are not official NWS values.
T = Trace of Precipitation, MM = Missing Value Source: Averaged Metar Reports

Daily Weather History Graph

Daily Weather History Graph

Search for Another Location

Airport or City:

Trip Planner

Search our weather history database for the weather conditions in past years. The results will help you decide how hot, cold, wet, or windy it might be!

Date:

Astronomía

Nov. 14, 2017 Salida Puesta
Hora real 7:39 AM CET 5:32 PM CET
Crepúsculo civil 7:09 AM CET 6:02 PM CET
Crepúsculo náutico 6:35 AM CET 6:35 PM CET
Crepúsculo astronómico 6:03 AM CET 7:08 PM CET
Luna 3:20 AM CET (11/14) 3:52 PM CET (11/14)
Horas de luz 10h 52m
Horas de luz
9h 53m
Creciente menguante, 15% of the Moon is Illuminated
Nov 14
Creciente menguante
Nov 18
Nueva
Nov 26
Cuarto creciente
Dic 3
Luna llena
Dic 10
Cuarto menguante

Hourly Weather History & Observations

Hora (CET) Temp. Vientos helados Punto de rocío Humedad Presión Visibilidad Wind Dir Velocidad del viento Velocidad de ráfagas Precip Eventos Condiciones
12:00 AM 44.6 ° F 43.1 ° F 23.0 ° F 43% 29.98 pul - SSE 3.5 mph - N/A   Despejado
12:30 AM 44.6 ° F - 21.2 ° F 39% 29.98 pul - Variable 2.3 mph - N/A   Despejado
1:00 AM 46.4 ° F - 21.2 ° F 37% 29.98 pul 6.2 mi Variable 1.2 mph - N/A   Desconocido
1:30 AM 42.8 ° F - 23.0 ° F 46% 29.98 pul 6.2 mi Sin viento Sin viento - N/A   Desconocido
2:00 AM 42.8 ° F - 24.8 ° F 49% 29.98 pul 6.2 mi Sin viento Sin viento - N/A   Desconocido
2:30 AM 37.4 ° F - 24.8 ° F 60% 29.98 pul 6.2 mi Sin viento Sin viento - N/A   Desconocido
3:00 AM 37.4 ° F - 24.8 ° F 60% 29.98 pul 6.2 mi Sin viento Sin viento - N/A   Desconocido
3:30 AM 41.0 ° F 39.0 ° F 24.8 ° F 53% 29.98 pul 6.2 mi NO 3.5 mph - N/A   Desconocido
4:00 AM 41.0 ° F 39.0 ° F 23.0 ° F 49% 29.98 pul 6.2 mi ONO 3.5 mph - N/A   Desconocido
4:30 AM 42.8 ° F - 23.0 ° F 46% 29.98 pul 6.2 mi NO 2.3 mph - N/A   Desconocido
5:00 AM 44.6 ° F 42.2 ° F 23.0 ° F 43% 29.98 pul 6.2 mi NO 4.6 mph - N/A   Desconocido
5:30 AM 37.4 ° F - 24.8 ° F 60% 29.98 pul 6.2 mi Variable 2.3 mph - N/A   Desconocido
6:00 AM 37.4 ° F - 24.8 ° F 60% 30.01 pul 6.2 mi Sin viento Sin viento - N/A   Desconocido
6:30 AM 37.4 ° F - 24.8 ° F 60% 30.01 pul 6.2 mi ENE 2.3 mph - N/A   Desconocido
7:00 AM 35.6 ° F - 26.6 ° F 70% 30.01 pul 6.2 mi Sin viento Sin viento - N/A   Desconocido
7:30 AM 37.4 ° F - 24.8 ° F 60% 30.04 pul 6.2 mi Variable 1.2 mph - N/A   Desconocido
8:00 AM 37.4 ° F - 26.6 ° F 65% 30.04 pul - Sin viento Sin viento - N/A   Despejado
8:30 AM 37.4 ° F - 26.6 ° F 65% 30.04 pul - Sin viento Sin viento - N/A   Despejado
9:00 AM 41.0 ° F - 28.4 ° F 61% 30.04 pul - Sin viento Sin viento - N/A   Despejado
9:30 AM 48.2 ° F - 30.2 ° F 50% 30.06 pul - Sin viento Sin viento - N/A   Despejado
10:00 AM 50.0 ° F - 26.6 ° F 40% 30.06 pul - Sin viento Sin viento - N/A   Despejado
10:30 AM 51.8 ° F - 28.4 ° F 41% 30.06 pul - Sin viento Sin viento - N/A   Despejado
11:30 AM 55.4 ° F - 28.4 ° F 36% 30.06 pul - Sin viento Sin viento - N/A   Despejado
12:00 PM 57.2 ° F - 28.4 ° F 33% 30.06 pul - Variable 1.2 mph - N/A   Despejado
12:30 PM 57.2 ° F - 30.2 ° F 36% 30.06 pul - Variable 1.2 mph - N/A   Despejado
1:00 PM 59.0 ° F - 28.4 ° F 31% 30.06 pul - Sin viento Sin viento - N/A   Despejado
1:30 PM 59.0 ° F - 30.2 ° F 34% 30.04 pul - Sin viento Sin viento - N/A   Despejado
2:00 PM 59.0 ° F - 30.2 ° F 34% 30.04 pul - ENE 1.2 mph - N/A   Despejado
2:30 PM 59.0 ° F - 32.0 ° F 36% 30.04 pul - Variable 1.2 mph - N/A   Despejado
3:00 PM 59.0 ° F - 30.2 ° F 34% 30.04 pul - ESE 4.6 mph - N/A   Despejado
3:30 PM 59.0 ° F - 28.4 ° F 31% 30.04 pul - SSE 3.5 mph - N/A   Despejado
4:00 PM 59.0 ° F - 30.2 ° F 34% 30.06 pul - Variable 2.3 mph - N/A   Despejado
4:30 PM 59.0 ° F - 32.0 ° F 36% 30.06 pul - ESE 4.6 mph - N/A   Despejado
5:00 PM 57.2 ° F - 32.0 ° F 38% 30.06 pul - SE 4.6 mph - N/A   Despejado
5:30 PM 53.6 ° F - 32.0 ° F 44% 30.06 pul 6.2 mi SSE 3.5 mph - N/A   Desconocido
6:00 PM 50.0 ° F - 33.8 ° F 54% 30.09 pul 6.2 mi Sin viento Sin viento - N/A   Desconocido
6:30 PM 50.0 ° F - 33.8 ° F 54% 30.09 pul 6.2 mi Sin viento Sin viento - N/A   Desconocido
7:00 PM 46.4 ° F - 33.8 ° F 62% 30.09 pul 6.2 mi Variable 1.2 mph - N/A   Desconocido
7:30 PM 44.6 ° F 40.7 ° F 33.8 ° F 66% 30.09 pul 6.2 mi Oeste 6.9 mph - N/A   Desconocido
8:00 PM 44.6 ° F - 32.0 ° F 61% 30.12 pul 6.2 mi Variable 2.3 mph - N/A   Desconocido
8:30 PM 44.6 ° F 43.1 ° F 32.0 ° F 61% 30.12 pul 6.2 mi ONO 3.5 mph - N/A   Desconocido
9:00 PM 41.0 ° F - 32.0 ° F 70% 30.12 pul 6.2 mi Variable 2.3 mph - N/A   Desconocido
9:30 PM 39.2 ° F - 32.0 ° F 75% 30.12 pul 6.2 mi NO 1.2 mph - N/A   Desconocido
10:00 PM 39.2 ° F 34.2 ° F 30.2 ° F 70% 30.12 pul 6.2 mi Oeste 6.9 mph - N/A   Desconocido
10:30 PM 39.2 ° F 37.0 ° F 30.2 ° F 70% 30.12 pul 6.2 mi ONO 3.5 mph - N/A   Desconocido
11:00 PM 37.4 ° F - 30.2 ° F 75% 30.12 pul 6.2 mi Variable 2.3 mph - N/A   Desconocido
11:30 PM 37.4 ° F - 30.2 ° F 75% 30.12 pul 6.2 mi Sin viento Sin viento - N/A   Desconocido